Wind_Speed
7 7 6 6 6 6 6 5 6 6 6 6 6 7 8 7 8 8 8 8 8 9 8 9 9 9 9 8 8 8 9 9 8 8 9 9 9 9 8 8 8 8 9
6 7 7 6 6 6 6 6 6 6 6 7 7 7 8 8 8 9 10 10 10 10 10 10 10 10 10 10 9 10 11 11 10 10 10 10 10 10 10 10 9 10 10
6 7 7 6 6 6 6 6 6 7 7 7 7 8 8 9 9 10 11 11 11 11 11 11 11 11 11 11 11 12 12 12 11 12 12 12 11 11 12 12 12 12 11
6 7 6 7 7 6 7 8 7 8 8 9 9 9 9 9 10 11 12 12 12 13 13 12 12 13 13 12 12 12 13 13 13 13 13 13 13 12 12 13 13 13 13
8 7 7 8 8 8 8 9 8 9 9 10 11 11 11 12 12 12 13 13 14 14 13 13 13 13 14 14 14 14 14 14 14 14 13 13 13 13 13 14 14 14 14
9 9 9 10 9 9 10 10 10 10 11 11 12 13 13 14 14 14 13 14 15 15 14 14 14 14 14 15 15 15 15 15 15 15 14 13 14 14 15 15 15 15 15
10 10 10 11 11 12 11 12 12 11 11 12 12 13 15 15 15 15 15 15 16 16 16 15 15 15 15 15 15 16 16 16 15 15 14 14 14 15 16 16 17 16 17
12 12 12 12 13 14 13 14 14 13 13 13 14 14 15 16 16 16 16 17 17 18 17 16 16 16 16 16 16 16 16 16 15 15 15 16 16 16 17 18 18 18 17
15 15 14 14 14 15 16 15 15 15 15 15 15 16 16 17 17 17 18 18 18 19 19 18 18 18 18 17 17 17 17 16 16 16 16 17 17 17 18 18 19 19 19
16 16 15 15 15 15 16 16 15 16 16 17 16 16 17 18 19 18 19 19 19 20 20 19 19 19 18 19 19 19 18 18 18 17 17 17 18 18 18 18 20 20 20
16 17 17 16 15 15 16 16 16 16 16 17 18 18 18 19 20 20 20 20 21 21 21 21 21 20 20 20 20 20 20 20 19 19 19 19 20 21 20 20 21 21 21
17 17 17 17 17 18 18 17 17 18 18 19 20 21 21 21 21 21 21 22 22 21 21 22 21 21 21 21 21 21 22 21 20 21 20 21 21 21 21 21 21 21 21
17 18 18 18 19 19 19 19 19 20 20 21 21 22 22 21 21 22 22 23 24 23 23 23 22 22 22 22 23 23 22 22 22 22 23 23 23 22 22 22 22 22 21
18 19 19 19 19 20 20 20 21 21 22 23 23 22 22 22 23 23 24 25 25 25 25 25 25 24 24 24 24 24 24 24 24 24 25 25 24 24 23 24 24 23 23
21 21 20 19 20 21 21 22 22 22 23 23 23 24 25 25 25 25 25 26 26 26 27 26 25 25 25 24 25 25 26 26 25 26 26 26 25 26 25 25 25 25 24
21 21 20 21 21 22 22 22 23 23 24 24 24 25 26 27 27 27 27 27 27 27 27 27 26 26 26 26 26 27 27 27 26 26 26 26 26 26 26 26 26 26 25
22 21 21 22 22 22 23 23 24 25 25 26 26 27 28 28 28 28 27 27 27 27 28 27 27 26 27 27 28 28 27 28 28 27 27 27 27 27 27 27 26 27 26
23 22 22 23 22 23 24 24 25 26 27 27 28 28 29 29 29 28 28 27 28 28 28 27 27 27 27 27 27 28 28 28 28 27 27 27 27 27 27 28 27 28 28
24 24 24 24 24 25 25 25 26 27 27 28 28 29 29 29 29 29 29 29 29 28 28 27 27 27 28 28 29 29 29 29 28 28 27 27 27 28 28 28 29 29 29
26 25 25 25 26 27 28 28 28 28 29 29 30 30 30 30 30 30 30 30 30 30 29 29 29 29 29 29 30 31 30 30 29 29 28 28 28 28 29 29 29 29 29
26 26 26 27 27 28 29 29 29 29 30 31 31 31 32 32 32 32 31 32 31 31 31 30 30 30 30 29 30 30 30 30 30 30 29 28 28 28 28 29 28 28 28
27 28 28 28 29 29 30 30 31 31 32 32 32 33 33 34 34 33 33 32 32 31 31 32 31 31 31 30 31 30 30 30 30 29 29 29 29 29 29 29 28 28 28
29 30 30 30 31 31 32 33 33 33 34 34 34 34 35 34 34 34 33 32 32 32 32 31 31 31 32 31 31 30 30 31 30 29 29 29 29 29 29 29 29 29 29
31 32 32 31 31 32 33 33 34 34 35 35 35 35 34 33 33 33 33 33 33 33 32 32 32 32 32 32 31 31 31 31 30 30 29 29 29 29 30 30 30 30 30
32 32 32 32 32 33 33 34 34 34 34 34 33 34 34 34 34 34 33 33 33 33 33 33 33 33 33 32 32 32 31 30 30 30 29 29 29 30 30 30 30 30 30
32 32 32 33 34 34 34 34 35 34 34 34 34 34 34 34 34 34 34 33 32 32 32 33 33 33 32 32 33 32 31 30 30 30 30 29 30 30 30 30 30 30 31
Wind_Direction
4 1 359 4 8 5 5 3 0 357 356 355 350 348 348 347 345 341 338 335 333 333 332 327 323 323 322 322 321 320 318 315 312 310 308 305 303 304 301 303 301 300 299
354 354 351 355 2 360 358 355 349 345 342 341 340 342 342 339 333 332 331 329 327 327 327 324 323 321 320 320 317 315 312 310 306 306 304 298 297 306 307 306 304 300 297
336 340 339 340 346 349 350 346 341 337 335 334 332 332 331 329 326 326 327 325 323 323 319 319 320 320 319 316 314 315 314 308 305 301 301 297 295 299 303 306 306 304 301
319 323 325 328 326 328 330 331 329 328 328 324 320 319 319 317 318 318 319 319 320 318 314 314 315 317 315 311 310 311 310 308 305 302 298 295 296 298 301 302 305 304 302
308 312 313 312 315 316 315 317 320 321 323 320 315 314 313 312 314 315 315 317 317 316 315 314 313 314 314 309 306 304 304 304 304 303 300 298 298 302 306 306 305 302 302
300 305 304 305 304 308 308 309 310 312 315 315 311 311 312 313 316 315 314 316 318 318 321 317 313 311 311 310 306 303 304 305 305 304 304 303 305 305 305 306 304 303 300
294 296 295 296 297 298 301 302 302 304 307 310 308 307 309 308 311 313 314 315 317 318 318 316 314 312 311 310 306 304 307 308 307 307 309 309 308 305 306 305 304 303 300
278 285 290 292 292 292 298 300 297 298 300 304 307 306 309 309 309 311 313 313 314 315 314 313 311 310 309 308 307 307 305 305 303 304 305 306 307 306 305 302 300 300 299
278 285 284 286 289 291 296 300 294 294 297 301 304 306 308 311 310 309 309 311 311 310 308 308 306 305 305 305 304 303 302 301 301 302 301 301 303 304 304 301 298 297 297
277 280 279 283 285 289 294 296 295 296 296 297 299 302 306 309 310 310 310 310 311 310 308 305 303 302 300 300 300 300 300 299 299 300 299 300 300 302 302 300 299 297 297
278 278 276 286 284 290 292 294 295 296 296 296 298 301 303 305 307 307 308 310 309 310 309 307 303 301 300 299 297 296 297 298 298 298 299 299 299 301 300 299 299 297 296
278 277 279 285 288 291 292 292 293 294 295 295 296 298 300 303 305 304 305 307 308 308 308 308 306 302 300 297 294 293 295 294 294 295 296 297 297 298 298 298 297 297 295
276 278 283 286 288 287 290 293 294 294 293 293 294 298 302 302 302 302 304 305 306 306 306 305 303 301 298 295 295 294 295 295 293 292 293 294 296 296 296 296 296 296 295
277 281 283 285 286 286 287 290 292 294 293 293 296 299 301 302 302 301 301 302 302 303 302 302 299 298 297 296 296 294 294 294 293 292 292 292 293 293 294 295 294 293 293
280 282 282 283 285 284 284 287 289 290 291 293 295 297 300 301 300 299 299 299 299 300 300 300 298 297 296 296 295 295 294 293 292 291 291 290 289 289 291 293 292 292 291
281 281 282 285 285 283 284 287 288 288 290 292 293 296 298 298 299 298 296 296 297 298 299 300 298 296 294 295 294 294 294 294 293 292 291 289 288 289 290 290 290 290 290
278 279 282 284 283 285 286 287 287 289 291 293 295 295 296 297 298 297 296 296 296 297 298 298 297 295 294 294 294 293 292 293 294 293 291 289 288 288 288 289 289 288 288
278 280 282 281 282 285 286 286 289 290 291 293 295 296 295 295 296 297 297 297 297 297 297 296 295 294 294 295 294 293 293 292 292 291 290 290 289 288 288 289 289 289 288
276 277 279 281 284 284 286 287 289 290 291 293 294 294 295 295 295 296 296 296 295 296 296 295 295 293 294 293 293 293 292 290 289 288 288 289 289 288 288 289 288 288 288
274 277 278 281 282 283 285 288 290 291 291 291 292 293 294 295 295 295 294 293 292 293 293 293 293 293 294 294 294 292 292 290 289 289 290 290 289 288 288 290 289 289 289
275 277 278 279 282 284 284 285 288 290 291 292 292 292 292 293 293 294 294 293 293 291 291 291 291 292 293 293 293 292 291 290 290 290 290 291 289 289 289 291 291 291 290
275 277 279 280 281 284 285 286 289 291 292 292 292 292 292 292 292 293 293 292 292 293 292 291 290 291 292 292 292 291 291 289 290 290 290 290 288 288 288 290 290 291 290
276 277 278 280 282 283 286 287 290 291 291 290 291 292 292 291 291 292 291 290 291 293 292 291 290 291 291 291 291 291 291 290 290 289 290 290 288 288 288 289 290 290 289
275 278 280 281 283 284 285 287 288 289 289 289 291 292 291 290 290 289 288 287 289 290 291 289 289 291 291 291 291 291 290 289 288 287 288 289 288 288 288 288 288 289 289
275 278 280 281 282 284 285 286 288 289 289 289 291 291 291 290 290 290 289 290 290 290 288 289 290 291 291 289 289 288 288 288 287 286 287 288 287 287 287 288 289 290 289
275 277 280 282 283 284 286 287 288 288 288 288 289 290 290 290 290 289 289 290 290 291 290 290 291 291 290 288 289 288 287 287 287 286 286 286 286 287 287 288 289 290 291
Height
5904 5904 5903 5903 5902 5902 5901 5901 5901 5900 5900 5899 5898 5898 5897 5897 5896 5895 5894 5893 5892 5892 5891 5890 5889 5888 5887 5887 5886 5885 5885 5884 5883 5883 5882 5881 5881 5880 5879 5878 5878 5878 5877
5905 5904 5904 5903 5903 5902 5902 5901 5901 5900 5900 5899 5898 5898 5897 5897 5896 5895 5894 5893 5892 5891 5890 5889 5888 5887 5886 5885 5885 5884 5883 5882 5882 5881 5880 5880 5879 5878 5877 5876 5876 5875 5875
5904 5904 5904 5904 5903 5903 5902 5902 5901 5900 5900 5899 5898 5898 5897 5896 5895 5894 5893 5892 5891 5890 5889 5888 5887 5886 5885 5884 5883 5882 5881 5880 5879 5878 5878 5877 5876 5875 5875 5874 5873 5873 5872
5904 5904 5903 5903 5903 5902 5902 5901 5901 5900 5899 5898 5897 5897 5896 5896 5895 5894 5893 5891 5890 5889 5888 5886 5885 5884 5883 5882 5881 5880 5879 5878 5877 5876 5875 5874 5873 5873 5872 5872 5871 5870 5868
5903 5903 5902 5902 5902 5902 5901 5901 5900 5899 5898 5897 5896 5896 5895 5894 5893 5892 5891 5890 5889 5888 5886 5885 5883 5882 5881 5880 5879 5878 5877 5876 5875 5874 5873 5872 5871 5870 5869 5869 5868 5867 5865
5901 5901 5901 5900 5900 5900 5900 5899 5899 5898 5897 5896 5895 5894 5893 5892 5891 5890 5890 5888 5887 5885 5884 5883 5881 5880 5879 5878 5876 5875 5874 5873 5872 5871 5870 5869 5868 5867 5866 5865 5864 5864 5863
5900 5900 5900 5899 5899 5898 5898 5897 5897 5896 5895 5894 5893 5892 5891 5890 5889 5888 5887 5886 5885 5883 5882 5880 5879 5877 5876 5875 5874 5872 5871 5870 5869 5868 5867 5866 5865 5864 5863 5862 5860 5860 5859
5898 5898 5898 5898 5897 5896 5895 5895 5894 5894 5893 5892 5891 5890 5889 5888 5887 5886 5885 5884 5882 5881 5879 5877 5876 5875 5873 5872 5871 5869 5868 5867 5866 5865 5864 5862 5861 5860 5859 5858 5857 5856 5855
5896 5895 5895 5895 5894 5893 5893 5892 5891 5891 5890 5890 5889 5888 5887 5885 5884 5883 5882 5881 5879 5878 5876 5875 5873 5871 5870 5868 5867 5866 5865 5864 5862 5861 5860 5859 5858 5856 5855 5853 5853 5852 5850
5893 5892 5891 5892 5891 5891 5890 5889 5888 5888 5887 5887 5886 5885 5884 5883 5881 5880 5879 5878 5876 5874 5872 5870 5869 5867 5866 5864 5863 5862 5861 5860 5859 5858 5856 5855 5854 5852 5851 5849 5848 5846 5845
5890 5889 5886 5887 5887 5886 5886 5886 5885 5885 5884 5883 5882 5881 5880 5879 5878 5877 5875 5874 5872 5870 5869 5867 5865 5863 5862 5860 5859 5857 5856 5855 5854 5853 5852 5851 5849 5848 5846 5845 5843 5842 5840
5886 5885 5884 5883 5883 5883 5883 5882 5882 5881 5880 5879 5879 5877 5876 5875 5874 5872 5871 5870 5868 5867 5865 5863 5861 5859 5857 5856 5854 5852 5851 5850 5849 5848 5847 5846 5844 5843 5841 5840 5838 5836 5835
5882 5882 5881 5881 5880 5880 5879 5879 5878 5877 5876 5875 5874 5873 5872 5870 5869 5868 5866 5865 5864 5862 5860 5858 5856 5854 5853 5851 5849 5848 5846 5845 5844 5843 5842 5840 5839 5837 5836 5834 5833 5831 5830
5878 5878 5878 5877 5877 5876 5875 5875 5874 5873 5872 5870 5869 5868 5867 5866 5864 5863 5862 5860 5858 5857 5855 5853 5851 5849 5848 5846 5844 5842 5841 5839 5838 5837 5836 5834 5833 5832 5830 5829 5827 5825 5824
5873 5874 5873 5872 5872 5872 5871 5870 5869 5868 5867 5866 5865 5863 5862 5860 5859 5858 5856 5854 5853 5851 5849 5847 5845 5844 5842 5840 5838 5837 5835 5833 5832 5830 5829 5828 5827 5825 5824 5822 5821 5819 5818
5869 5869 5869 5868 5868 5867 5865 5865 5864 5863 5862 5860 5859 5858 5856 5855 5854 5852 5850 5848 5847 5845 5843 5841 5839 5837 5836 5834 5832 5830 5828 5827 5825 5824 5822 5821 5820 5818 5817 5815 5814 5812 5811
5864 5863 5863 5863 5862 5861 5861 5860 5859 5858 5856 5855 5854 5852 5851 5849 5848 5846 5844 5842 5840 5838 5836 5834 5832 5831 5829 5827 5825 5823 5821 5819 5818 5816 5815 5813 5813 5811 5810 5808 5806 5805 5804
5859 5859 5858 5856 5856 5856 5855 5854 5853 5851 5850 5849 5847 5846 5844 5843 5841 5839 5837 5835 5833 5831 5829 5828 5826 5824 5822 5820 5818 5816 5814 5812 5810 5809 5808 5806 5805 5803 5802 5801 5799 5797 5796
5853 5853 5853 5851 5851 5850 5848 5847 5846 5845 5843 5842 5841 5839 5837 5836 5834 5832 5830 5828 5826 5824 5822 5820 5819 5817 5815 5813 5811 5808 5806 5805 5803 5801 5800 5799 5797 5795 5794 5793 5792 5791 5789
5846 5846 5846 5846 5845 5844 5842 5841 5840 5838 5837 5835 5834 5832 5830 5829 5827 5825 5823 5821 5819 5817 5815 5813 5811 5809 5807 5805 5803 5801 5799 5797 5796 5794 5793 5791 5790 5788 5787 5786 5784 5783 5781
5840 5840 5840 5839 5838 5837 5836 5835 5833 5831 5830 5828 5826 5824 5822 5820 5819 5817 5814 5812 5810 5808 5807 5805 5804 5802 5800 5797 5795 5793 5791 5789 5788 5787 5785 5784 5782 5781 5779 5778 5776 5775 5773
5833 5833 5833 5832 5831 5830 5828 5826 5825 5824 5822 5820 5819 5817 5814 5812 5810 5808 5806 5804 5802 5801 5799 5797 5796 5794 5791 5789 5787 5785 5782 5780 5779 5778 5777 5776 5774 5773 5771 5770 5768 5766 5765
5826 5825 5824 5824 5823 5822 5821 5819 5818 5816 5814 5812 5810 5808 5806 5803 5801 5799 5797 5795 5794 5792 5790 5789 5787 5785 5783 5781 5779 5776 5774 5772 5771 5770 5768 5767 5766 5765 5763 5762 5760 5758 5756
5818 5817 5817 5816 5815 5814 5813 5811 5809 5807 5805 5803 5801 5799 5797 5794 5793 5791 5789 5787 5785 5783 5782 5780 5778 5776 5774 5772 5770 5768 5766 5764 5762 5761 5760 5758 5757 5756 5754 5753 5751 5749 5748
5810 5809 5809 5808 5807 5806 5804 5802 5800 5798 5796 5794 5792 5790 5788 5786 5784 5782 5780 5778 5776 5774 5772 5770 5769 5767 5765 5763 5761 5759 5757 5755 5754 5752 5751 5750 5748 5747 5746 5745 5743 5741 5739
5801 5801 5800 5799 5798 5797 5795 5793 5791 5789 5787 5785 5783 5781 5778 5777 5774 5773 5771 5769 5767 5765 5763 5761 5759 5757 5755 5753 5751 5750 5748 5746 5745 5743 5742 5741 5740 5739 5737 5736 5734 5732 5731